#timestamp,LO_Frequency,Hit,StdDev 
1651179615.6,286047003.9,N
1651179635.5,286047011.9,Y
1651179655.3,286047000.8,P
1651179675.2,286047000.6,N
1651179695.9,286047002.8,P
1651179715.7,286047002.8,Y
1651179735.6,286046999.4,P
1651179755.4,286046999.0,N
1651179775.2,286046999.0,N
1651179795.1,286047001.2,N
1651179796.0,286047001.2,N
1651179815.8,286047001.1,N
1651179835.7,286046999.3,N
1651179855.5,286046997.4,N
1651179875.3,286046997.6,N
1651179895.2,286046997.8,N
1651179915.0,286046999.0,N
1651179915.9,286046999.0,N
1651179935.7,286047002.4,N
1651179955.6,286047002.4,N
1651179975.4,286047000.2,N
1651179995.3,286047000.5,N
1651180015.1,286047000.9,N
1651180016.0,286047000.9,N
1651180035.8,286047002.3,N
1651180055.7,286047001.6,N
1651180075.5,286047000.2,N
1651180095.4,286047001.0,N
1651180115.2,286047000.9,N
1651180135.0,286047000.9,N
1651180135.9,286047000.9,N
1651180155.8,286047000.9,N
1651180175.6,286047000.9,N
1651180195.4,286046999.0,N
1651180215.3,286046999.6,N
1651180235.1,286046998.4,N
1651180255.9,286046999.4,N
1651180275.7,286046999.2,N
1651180295.5,286046997.3,N
1651180315.4,286046996.6,N
1651180335.2,286046997.5,N
1651180355.0,286046997.1,N
1651180355.9,286046997.1,N
1651180375.8,286046996.8,N
1651180395.6,286046998.4,N
1651180415.5,286046998.8,N
1651180435.3,286047001.2,N
1651180455.1,286046999.0,N
1651180475.9,286046998.4,N
1651180495.7,286046998.1,N
1651180515.5,286046998.2,N
1651180535.4,286046998.1,N
1651180555.2,286046999.4,N
1651180575.1,286046998.4,N
1651180576.0,286046998.4,N
1651180595.8,286047000.5,N
1651180615.6,286046997.0,N
1651180635.5,286046998.5,N
1651180655.3,286046999.3,N
1651180675.1,286046997.5,N
1651180695.9,286046995.4,Y
1651180715.7,286046998.8,P
1651180735.6,286046998.2,P
1651180755.4,286046998.2,P
1651180775.2,286046998.5,Y
1651180795.1,286047001.2,P
1651180796.0,286047001.2,N
1651180815.8,286047002.2,N
1651180835.7,286047002.6,N
1651180855.5,286046999.8,N
1651180875.3,286047001.6,N
1651180895.2,286047003.9,N
1651180915.0,286047003.7,N
1651180915.9,286047003.7,N
1651180935.7,286047002.2,N
1651180955.6,286047002.6,N
1651180975.4,286047002.1,N
1651180995.3,286047002.1,N
1651181015.1,286047002.3,N
1651181016.0,286047002.3,N
1651181035.8,286046999.8,N
1651181055.7,286047002.4,N
1651181075.5,286047001.6,N
1651181095.3,286047001.9,N
1651181115.2,286047000.3,N
1651181135.0,286046999.9,N
1651181135.9,286046999.9,N
1651181155.8,286047000.7,N
1651181175.6,286047001.6,N
1651181195.4,286047002.1,N
1651181215.3,286047001.4,N
1651181235.1,286047003.7,N
1651181255.8,286047001.8,N
1651181275.7,286047004.4,Y
1651181325.6,286047000.7,E
1651181335.5,286047002.8,N
1651181355.3,286047000.1,P
1651181375.2,286046999.9,N
1651181395.9,286047000.3,N
1651181415.7,286047000.3,N
1651181435.6,286047000.4,N
1651181455.4,286046998.2,N
1651181475.2,286046999.3,N
1651181495.1,286046998.1,N
1651181496.0,286046998.1,N
1651181515.8,286046999.6,N
1651181535.7,286046995.6,Y
1651181555.5,286046994.9,P
1651181575.3,286046996.7,N
1651181595.2,286046997.2,N
1651181615.0,286046997.2,N
1651181615.9,286046997.2,N
1651181635.7,286046996.9,N
1651181655.6,286046998.3,N
1651181675.4,286046999.5,N
1651181695.3,286046997.9,N
1651181715.1,286046994.9,Y
1651181716.0,286046994.9,P
1651181735.8,286046998.8,N
1651181755.7,286046997.7,N
1651181775.5,286046997.9,N
1651181795.3,286046997.1,N
1651181815.2,286046998.5,N
1651181835.0,286047001.0,N
1651181835.9,286047001.0,N
1651181855.8,286047001.1,N
1651181875.6,286046999.7,N
1651181895.4,286047000.1,N
1651181915.3,286047001.0,N
1651181935.1,286047000.5,N
1651181955.9,286046999.0,N
1651181975.7,286046999.1,N
1651181995.5,286046999.3,N
1651182015.4,286046999.4,N
1651182035.2,286046998.7,N
1651182055.0,286046999.1,N
1651182055.9,286046999.1,N
1651182075.8,286046999.1,N
1651182095.6,286046996.9,N
1651182115.5,286046997.0,N
1651182135.3,286046999.4,N
1651182155.1,286046995.1,Y
1651182175.9,286046999.6,P
1651182195.7,286046996.9,P
1651182215.5,286046997.1,N
1651182235.4,286046999.5,N
1651182255.2,286046999.4,N
1651182275.1,286046998.3,N
1651182276.0,286046998.3,N
1651182295.8,286046998.7,N
1651182315.6,286047001.2,N
1651182335.5,286046999.0,N
1651182355.3,286046998.6,N
1651182375.1,286047002.3,N
1651182395.9,286047002.6,N
1651182415.7,286047000.5,N
1651182435.6,286046998.9,N
1651182455.4,286046998.7,N
1651182475.2,286046998.6,N
1651182495.1,286046999.9,N
1651182496.0,286046999.9,N
1651182515.8,286047000.6,N
1651182535.6,286046998.7,N
1651182555.5,286046999.6,N
1651182575.3,286046997.2,N
1651182595.2,286046998.4,N
1651182615.9,286046998.6,N
1651182635.7,286046997.2,N
1651182655.6,286046997.8,N
1651182675.4,286046997.0,N
1651182695.2,286046999.1,N
1651182715.1,286047000.4,N
1651182716.0,286047000.4,N
1651182735.8,286047001.1,N
1651182755.7,286047000.3,N
1651182775.5,286046998.3,N
1651182795.3,286046996.5,N
1651182815.2,286046998.9,N
1651182835.0,286046998.3,N
1651182835.9,286046998.3,N
1651182855.7,286046999.0,N
1651182875.6,286046999.0,N
1651182895.4,286046997.7,N
1651182915.3,286046997.3,N
1651182935.1,286046998.9,N
1651182936.0,286046998.9,N
1651182955.8,286046996.5,Y
1651182975.7,286046999.1,P
1651182995.5,286046998.7,P
1651183015.3,286047001.2,P
1651183035.2,286046998.3,N
1651183055.0,286046998.3,N
1651183055.9,286046998.3,N
1651183075.8,286046996.7,Y
1651183095.6,286046999.1,P
1651183115.4,286046999.1,P
1651183135.3,286047000.2,N
1651183155.1,286047001.2,N
1651183175.9,286047000.1,N
1651183195.7,286047000.7,N
